1497740400.49,11796,15.06,73756.3,-0.13,-0.89,-0.93,0,*61
1497740401.72,11797,15.06,73758.3,-0.15,-0.89,-0.93,0,*66
1497740402.97,11798,15.06,73764.3,-0.13,-0.89,-0.93,0,*6F
1497740404.2,11799,15.06,73764.8,-0.15,-0.89,-0.93,0,*68
1497740405.43,11800,15.06,73762.5,-0.15,-0.89,-0.93,0,*67
1497740406.68,11801,15.06,73770.3,-0.13,-0.89,-0.93,0,*60
1497740407.93,11802,15.06,73766.8,-0.13,-0.89,-0.93,0,*63
1497740409.16,11803,15.06,73768.8,-0.15,-0.93,-0.89,0,*64
1497740410.38,11804,15.06,73762.3,-0.15,-0.93,-0.93,0,*68
1497740411.63,11805,15.06,73764.3,-0.13,-0.93,-0.93,0,*6F
1497740412.86,11806,15.06,73768.3,-0.15,-0.93,-0.93,0,*6A
1497740414.11,11807,15.06,73768.8,-0.13,-0.93,-0.93,0,*6D
1497740415.36,11808,15.06,73770.8,-0.13,-0.93,-0.93,0,*62
1497740416.61,11809,15.06,73776.3,-0.13,-0.89,-0.93,0,*68
1497740417.84,11810,15.06,73774.8,-0.15,-0.89,-0.93,0,*66
1497740419.06,11811,15.06,73772.3,-0.15,-0.93,-0.93,0,*6C
1497740420.31,11812,15.06,73774.0,-0.13,-0.89,-0.93,0,*62
1497740421.54,11813,15.06,73772.5,-0.15,-0.89,-0.93,0,*65
1497740422.77,11814,15.06,73774.5,-0.15,-0.89,-0.93,0,*62
1497740424.02,11815,15.06,73772.8,-0.13,-0.89,-0.93,0,*65
1497740425.27,11816,15.0,73768.5,-0.13,-0.89,-0.93,0,*66
1497740426.53,11817,15.06,73776.0,-0.13,-0.89,-0.93,0,*67
1497740427.78,11818,15.06,73766.3,-0.13,-0.89,-0.93,0,*68
1497740429.01,11819,15.06,73772.0,-0.15,-0.89,-0.93,0,*6F
1497740430.24,11820,15.06,73766.8,-0.15,-0.89,-0.93,0,*65
1497740431.49,11821,15.06,73762.5,-0.13,-0.89,-0.93,0,*62
1497740432.74,11822,15.06,73770.8,-0.13,-0.89,-0.93,0,*61
1497740434.0,11823,15.06,73774.3,-0.13,-0.89,-0.93,0,*60
1497740435.25,11824,15.06,73766.5,-0.13,-0.89,-0.89,0,*6C
1497740436.51,11825,15.06,73762.0,-0.13,-0.89,-0.89,0,*6D
1497740437.73,11826,15.06,73768.8,-0.15,-0.89,-0.89,0,*68
1497740438.96,11827,15.06,73766.8,-0.15,-0.93,-0.89,0,*62
1497740440.19,11828,15.06,73768.3,-0.15,-0.89,-0.89,0,*66
1497740441.44,11829,15.06,73760.3,-0.13,-0.89,-0.89,0,*61
1497740442.67,11830,15.06,73764.3,-0.15,-0.89,-0.89,0,*6F
1497740443.9,11831,15.06,73764.8,-0.15,-0.89,-0.89,0,*6E
1497740445.15,11832,15.06,73760.3,-0.13,-0.89,-0.89,0,*6B
1497740446.41,11833,15.06,73766.8,-0.13,-0.89,-0.89,0,*6A
1497740447.66,11834,15.06,73760.8,-0.13,-0.89,-0.89,0,*6D
1497740448.92,11835,15.06,73754.5,-0.13,-0.85,-0.89,0,*60
1497740450.17,11836,15.06,73758.0,-0.13,-0.89,-0.89,0,*6F
1497740451.43,11837,15.06,73752.0,-0.13,-0.89,-0.89,0,*6E
1497740452.65,11838,15.06,73756.5,-0.15,-0.89,-0.89,0,*67
1497740453.91,11839,15.06,73742.0,-0.13,-0.89,-0.89,0,*60
1497740455.16,11840,15.06,73750.5,-0.13,-0.89,-0.89,0,*6E
1497740456.42,11841,15.06,73756.0,-0.13,-0.89,-0.89,0,*6F
1497740457.67,11842,15.06,73746.0,-0.13,-0.89,-0.89,0,*6C
1497740458.87,11843,15.06,73736.0,-0.11,-0.81,-0.85,0,*6B
1497740460.1,11844,15.06,73750.3,-0.11,-0.85,-0.85,0,*68
1497740461.35,11845,15.06,73744.5,-0.13,-0.85,-0.89,0,*67
1497740462.61,11846,15.06,73752.5,-0.13,-0.89,-0.89,0,*68
1497740463.86,11847,15.06,73750.0,-0.13,-0.89,-0.89,0,*69
1497740465.09,11848,15.06,73754.0,-0.15,-0.89,-0.85,0,*6C
1497740466.34,11849,15.06,73754.0,-0.13,-0.89,-0.85,0,*6B
1497740467.55,11850,15.06,73756.3,-0.11,-0.85,-0.81,0,*69
1497740468.8,11851,15.06,73754.3,-0.13,-0.89,-0.85,0,*62
1497740470.06,11852,15.0,73758.5,-0.13,-0.89,-0.85,0,*61
1497740471.31,11853,15.06,73748.3,-0.13,-0.89,-0.89,0,*6C
1497740472.57,11854,15.06,73766.3,-0.13,-0.85,-0.89,0,*67
1497740473.82,11855,15.06,73756.8,-0.13,-0.89,-0.89,0,*6A
1497740475.08,11856,15.06,73762.3,-0.13,-0.89,-0.89,0,*69
1497740476.33,11857,15.06,73766.8,-0.13,-0.89,-0.89,0,*68
1497740477.58,11858,15.0,73762.5,-0.13,-0.89,-0.89,0,*67
1497740478.84,11859,15.06,73746.5,-0.13,-0.89,-0.89,0,*66
1497740480.09,11860,15.06,73748.8,-0.13,-0.89,-0.85,0,*60
1497740481.32,11861,15.06,73762.5,-0.11,-0.85,-0.85,0,*6F
1497740482.52,11862,15.06,73762.0,-0.11,-0.81,-0.85,0,*68
1497740483.72,11863,15.06,73756.8,-0.11,-0.81,-0.85,0,*69
1497740484.93,11864,15.06,73758.8,-0.11,-0.85,-0.81,0,*6E
1497740486.15,11865,15.06,73762.0,-0.11,-0.85,-0.85,0,*6B
1497740487.38,11866,15.06,73752.5,-0.11,-0.85,-0.85,0,*68
1497740488.58,11867,15.06,73760.5,-0.11,-0.81,-0.85,0,*6D
1497740489.8,11868,15.06,73756.3,-0.11,-0.85,-0.85,0,*66
1497740491.05,11869,15.06,73752.8,-0.09,-0.85,-0.85,0,*5E
1497740492.3,11870,15.06,73752.3,-0.13,-0.85,-0.89,0,*61
1497740493.56,11871,15.06,73756.0,-0.13,-0.89,-0.89,0,*6C
1497740494.74,11872,15.06,73764.0,-0.11,-0.81,-0.81,0,*6D
1497740495.94,11873,15.06,73758.3,-0.11,-0.85,-0.81,0,*68
1497740497.17,11874,15.06,73752.0,-0.11,-0.85,-0.85,0,*6B
1497740498.39,11875,15.06,73770.0,-0.11,-0.85,-0.85,0,*6A
1497740499.62,11876,15.06,73750.3,-0.11,-0.85,-0.85,0,*69
1497740500.84,11877,15.06,73760.3,-0.11,-0.85,-0.85,0,*68
1497740502.07,11878,15.0,73760.5,-0.11,-0.85,-0.85,0,*67
1497740503.29,11879,15.06,73770.5,-0.11,-0.85,-0.85,0,*66
1497740504.47,11880,15.0,73760.0,-0.11,-0.81,-0.81,0,*60
1497740505.7,11881,15.06,73746.0,-0.11,-0.85,-0.85,0,*61
1497740506.92,11882,15.06,73756.3,-0.09,-0.85,-0.81,0,*5F
1497740508.15,11883,15.06,73748.3,-0.11,-0.85,-0.85,0,*63
1497740509.37,11884,15.06,73756.5,-0.11,-0.85,-0.85,0,*64
1497740510.57,11885,15.06,73754.8,-0.11,-0.81,-0.85,0,*61
1497740511.76,11886,15.06,73746.5,-0.11,-0.81,-0.81,0,*66
1497740512.96,11887,15.06,73754.0,-0.11,-0.85,-0.81,0,*63
1497740514.18,11888,15.06,73748.0,-0.11,-0.85,-0.85,0,*68
1497740515.39,11889,15.06,73744.5,-0.11,-0.85,-0.81,0,*6D
1497740516.64,11890,15.06,73742.0,-0.09,-0.85,-0.85,0,*58
1497740517.86,11891,15.06,73756.0,-0.09,-0.81,-0.85,0,*5D
1497740519.07,11892,15.06,73746.5,-0.09,-0.81,-0.81,0,*5A
1497740520.29,11893,15.06,73762.8,-0.11,-0.85,-0.85,0,*62
1497740521.52,11894,15.06,73768.5,-0.11,-0.85,-0.85,0,*65
1497740522.76,11895,15.06,73766.8,-0.09,-0.85,-0.85,0,*5D
1497740523.99,11896,15.06,73754.5,-0.09,-0.81,-0.85,0,*5A
1497740525.2,11897,15.06,73750.3,-0.11,-0.85,-0.81,0,*62
1497740526.42,11898,15.06,73758.3,-0.11,-0.85,-0.85,0,*69
1497740527.64,11899,15.06,73754.3,-0.11,-0.85,-0.85,0,*68
1497740528.89,11900,15.06,73748.8,-0.09,-0.85,-0.85,0,*50
1497740530.14,11901,15.06,73750.0,-0.09,-0.85,-0.85,0,*51
1497740531.39,11902,15.06,73746.8,-0.09,-0.85,-0.85,0,*52
1497740532.57,11903,15.0,73752.0,-0.11,-0.81,-0.81,0,*6A
1497740533.79,11904,15.06,73762.3,-0.11,-0.85,-0.85,0,*6D
1497740535.02,11905,15.06,73756.0,-0.09,-0.81,-0.85,0,*51
1497740536.25,11906,15.06,73752.3,-0.09,-0.81,-0.85,0,*52
1497740537.43,11907,15.06,73756.0,-0.11,-0.81,-0.81,0,*6E
1497740538.61,11908,15.06,73758.0,-0.11,-0.81,-0.81,0,*61
1497740539.87,11909,15.0,73756.8,-0.13,-0.89,-0.89,0,*62
1497740541.07,11910,15.06,73762.0,-0.11,-0.81,-0.85,0,*6C
1497740542.29,11911,15.06,73752.8,-0.11,-0.85,-0.85,0,*69
1497740543.5,11912,15.06,73752.5,-0.11,-0.85,-0.81,0,*6E
1497740544.7,11913,15.0,73750.5,-0.11,-0.81,-0.85,0,*6F
1497740545.93,11914,15.06,73768.0,-0.09,-0.81,-0.85,0,*51
1497740547.11,11915,15.06,73768.3,-0.11,-0.81,-0.81,0,*6D
1497740548.33,11916,15.06,73772.3,-0.11,-0.85,-0.85,0,*6E
1497740549.56,11917,15.06,73768.5,-0.11,-0.85,-0.85,0,*6F
1497740550.8,11918,15.06,73766.5,-0.09,-0.85,-0.85,0,*59
1497740552.03,11919,15.06,73764.0,-0.11,-0.85,-0.85,0,*61
1497740553.26,11920,15.0,73764.5,-0.09,-0.85,-0.81,0,*56
1497740554.46,11921,15.06,73766.5,-0.11,-0.81,-0.85,0,*6E
1497740555.71,11922,15.06,73782.0,-0.09,-0.85,-0.85,0,*50
1497740556.91,11923,15.0,73768.8,-0.11,-0.81,-0.85,0,*6C
1497740558.14,11924,15.06,73774.3,-0.09,-0.81,-0.85,0,*52
1497740559.38,11925,15.06,73774.3,-0.09,-0.85,-0.85,0,*57
1497740560.59,11926,15.06,73772.3,-0.11,-0.81,-0.85,0,*69
1497740561.81,11927,15.06,73776.0,-0.11,-0.85,-0.85,0,*6C
1497740563.04,11928,15.06,73774.5,-0.11,-0.85,-0.85,0,*63
1497740564.26,11929,15.0,73760.5,-0.11,-0.85,-0.85,0,*62
1497740565.51,11930,15.0,73764.3,-0.09,-0.85,-0.85,0,*53
1497740566.69,11931,15.06,73772.3,-0.11,-0.81,-0.81,0,*6B
1497740567.94,11932,15.0,73772.3,-0.09,-0.85,-0.85,0,*51
1497740569.16,11933,15.06,73768.0,-0.11,-0.85,-0.85,0,*69
1497740570.41,11934,15.0,73760.8,-0.09,-0.85,-0.85,0,*57
1497740571.61,11935,15.06,73768.3,-0.11,-0.81,-0.85,0,*6B
1497740572.84,11936,15.06,73770.8,-0.11,-0.85,-0.85,0,*6C
1497740574.06,11937,15.06,73772.5,-0.11,-0.85,-0.85,0,*6D
1497740575.31,11938,15.06,73766.3,-0.09,-0.85,-0.85,0,*5B
1497740576.53,11939,15.0,73760.5,-0.11,-0.85,-0.85,0,*63
1497740577.76,11940,15.06,73776.0,-0.11,-0.85,-0.85,0,*6D
1497740578.98,11941,15.06,73770.8,-0.11,-0.85,-0.85,0,*6C
1497740580.21,11942,15.06,73774.0,-0.11,-0.85,-0.85,0,*6F
1497740581.43,11943,15.06,73766.5,-0.11,-0.85,-0.85,0,*6E
1497740582.66,11944,15.06,73768.0,-0.09,-0.81,-0.85,0,*54
1497740583.88,11945,15.06,73770.5,-0.11,-0.85,-0.85,0,*68
1497740585.13,11946,15.06,73776.3,-0.09,-0.85,-0.85,0,*52
1497740586.38,11947,15.0,73768.8,-0.09,-0.85,-0.85,0,*53
1497740587.6,11948,15.06,73764.3,-0.11,-0.85,-0.85,0,*65
1497740588.8,11949,15.06,73768.0,-0.11,-0.85,-0.81,0,*60
1497740590.05,11950,15.06,73768.0,-0.09,-0.85,-0.85,0,*55
1497740591.28,11951,15.06,73766.5,-0.11,-0.85,-0.85,0,*6D
1497740592.53,11952,15.06,73760.5,-0.09,-0.85,-0.85,0,*57
1497740593.77,11953,15.06,73760.5,-0.09,-0.85,-0.85,0,*56
1497740595.0,11954,15.06,73750.0,-0.09,-0.81,-0.85,0,*55
1497740596.22,11955,15.06,73752.3,-0.11,-0.85,-0.85,0,*69
1497740597.47,11956,15.06,73760.8,-0.09,-0.85,-0.85,0,*53
1497740598.7,11957,15.06,73766.5,-0.09,-0.81,-0.85,0,*56
1497740599.95,11958,15.0,73756.3,-0.09,-0.85,-0.85,0,*5D
1497740601.17,11959,15.06,73750.3,-0.11,-0.85,-0.85,0,*65
1497740602.39,11960,15.06,73748.0,-0.11,-0.85,-0.85,0,*6F
1497740603.62,11961,15.06,73752.5,-0.11,-0.85,-0.85,0,*6E
1497740604.85,11962,15.06,73754.5,-0.09,-0.85,-0.81,0,*50
1497740606.09,11963,15.06,73748.5,-0.09,-0.85,-0.85,0,*55
1497740607.34,11964,15.0,73758.3,-0.09,-0.85,-0.85,0,*52
1497740608.59,11965,15.0,73754.3,-0.09,-0.85,-0.85,0,*53
1497740609.84,11966,15.06,73760.5,-0.09,-0.85,-0.85,0,*50
1497740611.09,11967,15.0,73758.3,-0.09,-0.85,-0.85,0,*51
1497740612.33,11968,15.06,73758.8,-0.09,-0.85,-0.85,0,*5E
1497740613.56,11969,15.06,73746.3,-0.11,-0.85,-0.85,0,*66
1497740614.78,11970,15.06,73752.5,-0.09,-0.85,-0.81,0,*53
1497740616.01,11971,15.06,73738.5,-0.11,-0.85,-0.85,0,*6F
1497740617.26,11972,15.06,73758.0,-0.09,-0.85,-0.85,0,*55
1497740618.51,11973,15.06,73774.3,-0.09,-0.85,-0.85,0,*54
1497740619.73,11974,15.0,73774.0,-0.09,-0.81,-0.85,0,*57
1497740620.98,11975,15.06,73768.5,-0.09,-0.89,-0.85,0,*5E
1497740622.23,11976,15.06,73774.0,-0.09,-0.85,-0.85,0,*51
1497740623.48,11977,15.06,73762.0,-0.09,-0.85,-0.85,0,*50
1497740624.72,11978,15.06,73764.8,-0.09,-0.85,-0.85,0,*5F
1497740625.97,11979,15.06,73776.5,-0.09,-0.85,-0.85,0,*5E
1497740627.2,11980,15.06,73772.0,-0.11,-0.85,-0.85,0,*61
1497740628.45,11981,15.06,73762.3,-0.09,-0.85,-0.85,0,*59
1497740629.69,11982,15.06,73756.0,-0.09,-0.85,-0.85,0,*5A
1497740630.92,11983,15.06,73786.0,-0.09,-0.81,-0.85,0,*5F
1497740632.17,11984,15.06,73780.5,-0.09,-0.85,-0.85,0,*5C
1497740633.39,11985,15.06,73762.0,-0.09,-0.81,-0.85,0,*59
1497740634.62,11986,15.06,73762.8,-0.09,-0.81,-0.85,0,*5A
1497740635.84,11987,15.06,73766.0,-0.11,-0.85,-0.85,0,*66
1497740637.07,11988,15.06,73780.3,-0.09,-0.81,-0.85,0,*54
1497740638.32,11989,15.06,73778.5,-0.09,-0.85,-0.85,0,*51
1497740639.54,11990,15.06,73780.3,-0.11,-0.85,-0.85,0,*60
1497740640.79,11991,15.06,73782.0,-0.09,-0.85,-0.85,0,*58
1497740642.04,11992,15.06,73752.5,-0.09,-0.85,-0.85,0,*5B
1497740643.29,11993,15.06,73758.8,-0.09,-0.85,-0.85,0,*5A
1497740644.49,11994,15.06,73750.3,-0.11,-0.81,-0.85,0,*60
1497740645.71,11995,15.06,73760.8,-0.11,-0.85,-0.85,0,*65
1497740646.92,11996,15.06,73760.3,-0.11,-0.81,-0.85,0,*62
1497740648.17,11997,15.06,73768.5,-0.09,-0.85,-0.85,0,*5E
1497740649.39,11998,15.06,73784.3,-0.09,-0.81,-0.85,0,*55
1497740650.64,11999,15.06,73770.3,-0.09,-0.85,-0.85,0,*50
1497740651.89,12000,15.06,73774.0,-0.09,-0.85,-0.85,0,*5A
1497740653.14,12001,15.06,73772.3,-0.09,-0.85,-0.85,0,*5B
1497740654.38,12002,15.06,73772.5,-0.09,-0.85,-0.85,0,*58
1497740655.61,12003,15.06,73770.5,-0.09,-0.85,-0.81,0,*5D
1497740656.84,12004,15.0,73768.8,-0.11,-0.85,-0.85,0,*67
1497740658.06,12005,15.06,73776.0,-0.11,-0.85,-0.85,0,*66
1497740659.27,12006,15.06,73770.5,-0.09,-0.81,-0.81,0,*5C
1497740660.51,12007,15.06,73768.3,-0.09,-0.85,-0.85,0,*5D
1497740661.74,12008,15.06,73766.8,-0.09,-0.85,-0.81,0,*56
1497740662.95,12009,15.0,73764.8,-0.09,-0.81,-0.81,0,*53
1497740664.2,12010,15.06,73778.0,-0.09,-0.85,-0.85,0,*5B
1497740665.44,12011,15.06,73770.0,-0.09,-0.85,-0.85,0,*5A
1497740666.65,12012,15.06,73780.5,-0.11,-0.81,-0.85,0,*64
1497740667.89,12013,15.06,73778.3,-0.09,-0.85,-0.85,0,*58
1497740669.14,12014,15.0,73782.8,-0.09,-0.85,-0.85,0,*5F
1497740670.35,12015,15.06,73764.5,-0.09,-0.81,-0.81,0,*5E
1497740671.53,12016,15.06,73774.0,-0.07,-0.81,-0.81,0,*53
1497740672.77,12017,15.0,73792.0,-0.09,-0.85,-0.85,0,*5C
1497740674.0,12018,15.0,73786.3,-0.09,-0.85,-0.81,0,*57
1497740675.23,12019,15.06,73778.3,-0.09,-0.85,-0.81,0,*56
1497740676.46,12020,15.06,73756.5,-0.09,-0.81,-0.85,0,*5C
1497740677.63,12021,15.06,73748.5,-0.07,-0.77,-0.77,0,*57
1497740678.88,12022,15.06,73748.8,-0.09,-0.85,-0.85,0,*5A
1497740680.13,12023,15.0,73760.3,-0.09,-0.85,-0.85,0,*5B
1497740681.38,12024,15.06,73776.0,-0.09,-0.85,-0.85,0,*5C
1497740682.61,12025,15.06,73762.3,-0.09,-0.85,-0.81,0,*59
1497740683.78,12026,15.06,73758.8,-0.07,-0.77,-0.77,0,*50
1497740685.01,12027,15.0,73758.8,-0.09,-0.81,-0.85,0,*5B
1497740686.24,12028,15.0,73740.3,-0.09,-0.81,-0.85,0,*54
1497740687.49,12029,15.06,73758.3,-0.09,-0.85,-0.85,0,*51
1497740688.71,12030,15.06,73760.5,-0.09,-0.81,-0.85,0,*5D
1497740689.96,12031,15.0,73752.5,-0.09,-0.85,-0.85,0,*58
1497740691.14,12032,15.0,73756.5,-0.07,-0.81,-0.81,0,*55
1497740692.39,12033,15.06,73760.3,-0.09,-0.85,-0.85,0,*5A
1497740693.61,12034,15.06,73768.3,-0.09,-0.81,-0.85,0,*59
1497740694.86,12035,15.06,73778.5,-0.09,-0.85,-0.85,0,*5C
1497740696.06,12036,15.0,73758.3,-0.11,-0.81,-0.85,0,*62
1497740697.31,12037,15.06,73768.8,-0.09,-0.85,-0.85,0,*5E
1497740698.56,12038,15.06,73774.0,-0.09,-0.85,-0.85,0,*51
1497740699.81,12039,15.06,73778.3,-0.09,-0.85,-0.85,0,*50
1497740701.06,12040,15.0,73764.8,-0.09,-0.85,-0.85,0,*5E
1497740702.3,12041,15.06,73766.0,-0.09,-0.85,-0.85,0,*5F
1497740703.55,12042,15.06,73778.8,-0.09,-0.85,-0.85,0,*5C
1497740704.73,12043,15.06,73762.0,-0.07,-0.77,-0.81,0,*5A
1497740705.91,12044,15.06,73746.5,-0.07,-0.81,-0.81,0,*54
1497740707.11,12045,15.06,73760.8,-0.05,-0.77,-0.77,0,*57
1497740708.36,12046,15.06,73770.0,-0.09,-0.85,-0.85,0,*58
1497740709.58,12047,15.06,73754.0,-0.09,-0.81,-0.85,0,*5D
1497740710.83,12048,15.06,73752.3,-0.09,-0.85,-0.85,0,*56
1497740712.08,12049,15.06,73752.0,-0.09,-0.85,-0.85,0,*57
1497740713.33,12050,15.06,73768.8,-0.09,-0.85,-0.85,0,*5F
1497740714.51,12051,15.06,73768.0,-0.07,-0.81,-0.81,0,*50
1497740715.69,12052,15.06,73768.0,-0.07,-0.81,-0.77,0,*5A
1497740716.87,12053,15.06,73774.0,-0.07,-0.81,-0.81,0,*52
1497740718.05,12054,15.06,73772.8,-0.07,-0.81,-0.81,0,*55
1497740719.22,12055,15.0,73764.3,-0.07,-0.77,-0.77,0,*54
1497740720.4,12056,15.06,73764.8,-0.07,-0.81,-0.81,0,*57
1497740721.58,12057,15.06,73762.8,-0.07,-0.81,-0.81,0,*56
1497740722.76,12058,15.06,73776.3,-0.07,-0.81,-0.81,0,*59
1497740723.94,12059,15.06,73754.8,-0.07,-0.81,-0.81,0,*58
1497740725.12,12060,15.06,73762.3,-0.07,-0.81,-0.77,0,*5B
1497740726.37,12061,15.06,73762.8,-0.09,-0.85,-0.85,0,*5D
1497740727.62,12062,15.06,73780.3,-0.09,-0.85,-0.85,0,*5E
1497740728.86,12063,15.06,73774.8,-0.09,-0.85,-0.85,0,*5F
1497740730.11,12064,15.06,73772.3,-0.09,-0.85,-0.85,0,*58
1497740731.29,12065,15.06,73756.3,-0.07,-0.81,-0.81,0,*57
1497740732.52,12066,15.0,73750.0,-0.11,-0.85,-0.85,0,*63
1497740733.74,12067,15.06,73760.5,-0.09,-0.81,-0.85,0,*5F
1497740734.99,12068,15.06,73764.3,-0.09,-0.85,-0.85,0,*54
1497740736.24,12069,15.06,73778.0,-0.09,-0.85,-0.85,0,*55
1497740737.47,12070,15.06,73768.3,-0.09,-0.81,-0.85,0,*59
1497740738.71,12071,15.06,73772.0,-0.09,-0.85,-0.85,0,*5C
1497740739.94,12072,15.06,73774.8,-0.11,-0.85,-0.85,0,*66
1497740741.16,12073,15.06,73774.5,-0.11,-0.85,-0.85,0,*67
1497740742.41,12074,15.06,73772.5,-0.09,-0.85,-0.85,0,*59
1497740743.66,12075,15.06,73766.0,-0.09,-0.85,-0.85,0,*58
1497740744.91,12076,15.06,73762.0,-0.09,-0.85,-0.85,0,*5B
1497740746.15,12077,15.06,73762.3,-0.09,-0.85,-0.89,0,*56
1497740747.4,12078,15.0,73756.0,-0.09,-0.85,-0.89,0,*59
1497740748.65,12079,15.06,73760.3,-0.09,-0.85,-0.89,0,*58
1497740749.9,12080,15.06,73756.0,-0.09,-0.85,-0.89,0,*5E
1497740751.15,12081,15.06,73758.5,-0.09,-0.85,-0.89,0,*5F
1497740752.4,12082,15.06,73758.8,-0.09,-0.85,-0.85,0,*50
1497740753.64,12083,15.06,73764.8,-0.09,-0.85,-0.85,0,*51
1497740754.89,12084,15.06,73760.8,-0.09,-0.85,-0.85,0,*56
1497740756.14,12085,15.06,73788.8,-0.09,-0.85,-0.85,0,*57
1497740757.39,12086,15.06,73776.8,-0.09,-0.85,-0.85,0,*54
1497740758.61,12087,15.06,73748.5,-0.11,-0.85,-0.85,0,*6C
1497740759.86,12088,15.06,73746.0,-0.09,-0.85,-0.85,0,*5A
1497740761.08,12089,15.06,73730.0,-0.11,-0.85,-0.85,0,*62
1497740762.33,12090,15.0,73742.0,-0.09,-0.85,-0.85,0,*53
1497740763.56,12091,15.06,73728.8,-0.11,-0.85,-0.89,0,*67
1497740764.81,12092,15.06,73730.3,-0.09,-0.85,-0.89,0,*5D
1497740766.05,12093,15.0,73724.0,-0.09,-0.89,-0.97,0,*5F
1497740767.3,12094,15.06,73716.5,-0.09,-0.89,-0.89,0,*57
1497740768.55,12095,15.06,73756.3,-0.09,-0.89,-0.89,0,*56
1497740769.8,12096,15.06,73750.3,-0.09,-0.89,-0.89,0,*55
1497740771.05,12097,15.06,73770.3,-0.09,-0.89,-0.89,0,*54
1497740772.3,12098,15.06,73748.8,-0.09,-0.89,-0.89,0,*5B
1497740773.55,12099,15.06,73752.8,-0.09,-0.89,-0.89,0,*5A
1497740774.8,12100,15.06,73758.5,-0.09,-0.89,-0.89,0,*5B
1497740776.05,12101,15.06,73756.5,-0.09,-0.89,-0.89,0,*5A
1497740777.3,12102,15.06,73726.5,-0.09,-0.89,-0.89,0,*59
1497740778.54,12103,15.0,73736.5,-0.09,-0.89,-0.89,0,*58
1497740779.79,12104,15.06,73752.5,-0.09,-0.89,-0.89,0,*5F
1497740781.04,12105,15.06,73740.8,-0.09,-0.89,-0.85,0,*52
1497740782.29,12106,15.06,73720.8,-0.09,-0.85,-0.85,0,*5D
1497740783.54,12107,15.06,73752.8,-0.09,-0.85,-0.85,0,*5C
1497740784.76,12108,15.06,73748.8,-0.09,-0.85,-0.81,0,*57
1497740785.99,12109,15.06,73748.8,-0.11,-0.85,-0.85,0,*6B
1497740787.24,12110,15.0,73742.8,-0.09,-0.85,-0.89,0,*56
1497740788.46,12111,15.06,73746.0,-0.09,-0.81,-0.85,0,*5F
1497740789.69,12112,15.06,73748.5,-0.11,-0.85,-0.85,0,*61
1497740790.94,12113,15.0,73742.0,-0.09,-0.85,-0.85,0,*59
1497740792.18,12114,15.06,73746.3,-0.09,-0.85,-0.85,0,*5E
1497740793.43,12115,15.06,73742.0,-0.09,-0.85,-0.85,0,*5F
1497740794.68,12116,15.06,73748.0,-0.09,-0.85,-0.89,0,*50
1497740795.93,12117,15.06,73748.3,-0.09,-0.85,-0.89,0,*51
1497740797.18,12118,15.06,73742.0,-0.09,-0.85,-0.85,0,*52
1497740798.43,12119,15.06,73766.3,-0.09,-0.85,-0.85,0,*53
1497740799.65,12120,15.06,73756.0,-0.11,-0.85,-0.85,0,*60
1497740800.83,12121,15.06,73746.8,-0.07,-0.77,-0.81,0,*5F
1497740802.0,12122,15.0,73754.5,-0.07,-0.81,-0.81,0,*55
1497740803.18,12123,15.06,73752.8,-0.07,-0.81,-0.81,0,*54
1497740804.36,12124,15.06,73758.8,-0.07,-0.81,-0.81,0,*53
1497740805.61,12125,15.06,73758.3,-0.09,-0.85,-0.85,0,*5C
1497740806.86,12126,15.06,73758.8,-0.09,-0.85,-0.85,0,*5F
1497740808.06,12127,15.06,73748.8,-0.07,-0.81,-0.85,0,*54
1497740809.26,12128,15.06,73756.3,-0.07,-0.81,-0.85,0,*5B
1497740810.51,12129,15.06,73762.0,-0.09,-0.85,-0.89,0,*5C
1497740811.75,12130,15.0,73750.8,-0.09,-0.85,-0.89,0,*54
1497740812.98,12131,15.06,73756.3,-0.11,-0.89,-0.89,0,*60
1497740814.23,12132,15.06,73758.5,-0.09,-0.89,-0.89,0,*5A
1497740815.48,12133,15.06,73762.0,-0.09,-0.85,-0.89,0,*57
1497740816.72,12134,15.06,73766.3,-0.09,-0.85,-0.89,0,*50
1497740817.95,12135,15.06,73760.8,-0.11,-0.85,-0.89,0,*68
1497740819.2,12136,15.06,73762.5,-0.09,-0.85,-0.89,0,*52
1497740820.42,12137,15.06,73762.8,-0.11,-0.85,-0.89,0,*6A
1497740821.67,12138,15.06,73768.0,-0.09,-0.85,-0.85,0,*50
1497740822.92,12139,15.06,73762.3,-0.09,-0.85,-0.85,0,*51
1497740824.17,12140,15.06,73760.3,-0.09,-0.85,-0.85,0,*5F
1497740825.41,12141,15.0,73756.3,-0.09,-0.85,-0.85,0,*5E
1497740826.66,12142,15.06,73758.8,-0.09,-0.85,-0.89,0,*51
1497740827.91,12143,15.06,73770.3,-0.09,-0.89,-0.89,0,*5C
1497740829.16,12144,15.06,73766.3,-0.09,-0.89,-0.89,0,*5B
1497740830.41,12145,15.06,73756.5,-0.09,-0.89,-0.89,0,*5A
1497740831.66,12146,15.06,73754.3,-0.09,-0.97,-0.89,0,*56
1497740832.91,12147,15.0,73754.3,-0.09,-0.89,-0.89,0,*58
1497740834.16,12148,15.06,73758.3,-0.09,-0.89,-0.89,0,*57
1497740835.41,12149,15.06,73760.3,-0.09,-0.89,-0.89,0,*56
1497740836.66,12150,15.0,73764.0,-0.09,-0.89,-0.89,0,*5E
1497740837.91,12151,15.0,73760.3,-0.09,-0.89,-0.89,0,*5F
1497740839.16,12152,15.06,73762.5,-0.09,-0.89,-0.89,0,*5C
1497740840.4,12153,15.06,73762.5,-0.09,-0.89,-0.89,0,*5D
1497740841.65,12154,15.06,73762.5,-0.09,-0.89,-0.89,0,*5A
1497740842.9,12155,15.06,73758.3,-0.09,-0.89,-0.97,0,*54
1497740844.15,12156,15.06,73760.5,-0.09,-0.89,-0.97,0,*57
1497740845.4,12157,15.06,73756.5,-0.09,-0.89,-0.89,0,*59
1497740846.65,12158,15.06,73756.5,-0.09,-0.89,-0.89,0,*56
1497740847.87,12159,15.06,73756.3,-0.11,-0.89,-0.97,0,*61
1497740849.1,12160,15.06,73760.0,-0.11,-0.89,-0.89,0,*64
1497740850.32,12161,15.06,73758.3,-0.11,-0.89,-0.89,0,*65
1497740851.55,12162,15.0,73750.3,-0.11,-0.89,-0.89,0,*66
1497740852.77,12163,15.06,73746.8,-0.11,-0.89,-0.89,0,*67
1497740854.0,12164,15.0,73742.0,-0.11,-0.89,-0.89,0,*60
1497740855.22,12165,15.06,73756.3,-0.11,-0.89,-0.89,0,*61
1497740856.47,12166,15.06,73752.0,-0.09,-0.89,-0.89,0,*5B
1497740857.72,12167,15.06,73758.5,-0.09,-0.89,-0.89,0,*5A
1497740858.95,12168,15.06,73752.8,-0.11,-0.89,-0.97,0,*63
1497740860.17,12169,15.06,73760.8,-0.11,-0.89,-0.97,0,*62
1497740861.4,12170,15.06,73744.8,-0.11,-0.97,-0.89,0,*6A
1497740862.65,12171,15.06,73764.5,-0.09,-0.89,-0.89,0,*5D
1497740863.9,12172,15.06,73778.3,-0.09,-0.89,-0.89,0,*5E
1497740865.15,12173,15.06,73770.3,-0.09,-0.89,-0.89,0,*5F
1497740866.37,12174,15.06,73730.8,-0.11,-0.89,-0.89,0,*61
1497740867.62,12175,15.06,73730.0,-0.09,-0.89,-0.89,0,*59
1497740868.84,12176,15.0,73728.0,-0.11,-0.89,-0.89,0,*63
1497740870.09,12177,15.06,73734.8,-0.09,-0.89,-0.89,0,*5B
1497740871.34,12178,15.06,73726.0,-0.09,-0.89,-0.89,0,*54
1497740872.57,12179,15.06,73740.0,-0.11,-0.89,-0.89,0,*6C
1497740873.79,12180,15.06,73742.3,-0.11,-0.89,-0.89,0,*6A
1497740875.02,12181,15.06,73748.3,-0.11,-0.89,-0.89,0,*6B
1497740876.24,12182,15.06,73742.3,-0.11,-0.89,-0.97,0,*67
1497740877.49,12183,15.06,73754.5,-0.09,-0.97,-0.89,0,*5F
1497740878.72,12184,15.06,73746.3,-0.11,-0.89,-0.89,0,*6E
1497740879.97,12185,15.06,73746.0,-0.09,-0.89,-0.89,0,*56
1497740881.2,12186,15.06,73732.5,-0.11,-0.97,-0.89,0,*63
1497740882.45,12187,15.06,73742.8,-0.09,-0.97,-0.97,0,*54
1497740883.67,12188,15.06,73746.3,-0.11,-0.97,-0.89,0,*6D
1497740884.9,12189,15.0,73744.3,-0.11,-0.89,-0.89,0,*63
1497740886.12,12190,15.06,73768.0,-0.11,-0.89,-0.97,0,*64
1497740887.35,12191,15.06,73764.3,-0.11,-0.97,-0.89,0,*65
1497740888.58,12192,15.06,73760.5,-0.11,-0.89,-0.89,0,*69
1497740889.82,12193,15.06,73758.8,-0.09,-0.89,-0.89,0,*51
1497740891.07,12194,15.06,73762.0,-0.09,-0.89,-0.89,0,*56
1497740892.3,12195,15.06,73760.0,-0.11,-0.89,-0.89,0,*6E
1497740893.52,12196,15.06,73766.8,-0.11,-0.89,-0.89,0,*6D
1497740894.75,12197,15.06,73762.0,-0.11,-0.89,-0.89,0,*6C
1497740895.97,12198,15.06,73762.8,-0.11,-0.89,-0.89,0,*63
1497740897.2,12199,15.06,73764.0,-0.11,-0.89,-0.89,0,*62
1497740898.45,12200,15.06,73764.0,-0.09,-0.89,-0.89,0,*58
1497740899.7,12201,15.06,73758.5,-0.09,-0.89,-0.89,0,*59
1497740900.94,12202,15.06,73766.3,-0.09,-0.89,-0.89,0,*5A
1497740902.19,12203,15.0,73746.0,-0.09,-0.89,-0.89,0,*5B
1497740903.42,12204,15.0,73748.8,-0.11,-0.89,-0.89,0,*65
1497740904.64,12205,15.06,73746.5,-0.11,-0.89,-0.89,0,*64
1497740905.89,12206,15.06,73760.8,-0.09,-0.89,-0.85,0,*52
1497740907.14,12207,15.06,73760.0,-0.09,-0.89,-0.85,0,*53
1497740908.39,12208,15.06,73762.3,-0.09,-0.89,-0.85,0,*5C
1497740909.64,12209,15.06,73766.8,-0.09,-0.89,-0.85,0,*5D
1497740910.86,12210,15.06,73762.0,-0.11,-0.89,-0.85,0,*6C